Grand Junction, CO

12:59 PM MST on November 13, 2019 (GMT -0700)
Walker

Weather History for KGJT - September, 2019

Change the Weather History Date:

Tuesday, September 17, 2019

  Actual Average Record
Temperature  
Mean Temperature 70 °F 66 °F  
Max Temperature 84 °F 80 °F 96 °F (1895)
Min Temperature 56 °F 52 °F 32 °F (2006)
Degree Days  
Heating Degree Days 0 2  
Month to date heating degree days 10 18  
Since 1 July heating degree days 10 21  
Cooling Degree Days 5 3  
Month to date cooling degree days 131 83  
Year to date cooling degree days 1252 1102  
Growing Degree Days 23 (Base 50)    
Moisture  
Dew Point 42 °F    
Average Humidity 35    
Maximum Humidity 48    
Minimum Humidity 21    
Precipitation  
Precipitation 0.01 in 0.04 in 0.62 in (2007)
Month to date precipitation 0.24 0.65  
Year to date precipitation 7.10 6.50  
Snow  
Snow 0.00 in 0.00 in T in (2001)
Month to date snowfall 0.0 0.0  
Since 1 July snowfall 0.0 0.0  
Since 1 September snowfall 0.0 0.0  
Snow Depth 0.00 in    
Sea Level Pressure  
Sea Level Pressure 29.79 in    
Wind  
Wind Speed 13 mph (ESE)    
Max Wind Speed 24 mph    
Max Gust Speed 33 mph    
Visibility 10 miles    
Events Rain , Thunderstorm    
T = Trace of Precipitation, MM = Missing Value Source: NWS Daily Summary

Daily Weather History Graph

Daily Weather History Graph

Search for Another Location

Airport or City:

Astronomy

Sep. 17, 2019 Rise Set
Actual Time 6:57 AM MDT 7:19 PM MDT
Civil Twilight 6:30 AM MDT 7:46 PM MDT
Nautical Twilight 5:58 AM MDT 8:17 PM MDT
Astronomical Twilight 5:26 AM MDT 8:49 PM MDT
Moon 9:25 PM MDT (9/17) 10:03 AM MDT (9/17)
Length of Visible Light 13h 15m
Length of Day
12h 22m
Waning Gibbous, 89% of the Moon is Illuminated
Sep 17
Waning Gibbous
Sep 21
Last Quarter
Sep 28
New
Oct 5
First Quarter
Oct 13
Full

Hourly Weather History & Observations

Time (MDT) Temp. Dew Point Humidity Pressure Visibility Wind Dir Wind Speed Gust Speed Precip Events Conditions
12:53 AM 68.0 °F 46.0 °F 45% 29.76 in 10.0 mi ESE 16.1 mph 24.2 mph N/A   Partly Cloudy
1:53 AM 66.9 °F 46.0 °F 47% 29.75 in 10.0 mi ESE 11.5 mph - N/A   Partly Cloudy
2:53 AM 68.0 °F 45.0 °F 43% 29.74 in 10.0 mi SE 19.6 mph 25.3 mph N/A   Clear
3:53 AM 66.0 °F 45.0 °F 47% 29.75 in 10.0 mi ESE 15.0 mph 21.9 mph N/A   Partly Cloudy
4:53 AM 66.0 °F 44.1 °F 45% 29.76 in 10.0 mi ESE 13.8 mph - N/A   Clear
5:53 AM 66.9 °F 45.0 °F 45% 29.77 in 10.0 mi SE 12.7 mph - N/A   Clear
6:53 AM 66.9 °F 45.0 °F 45% 29.78 in 10.0 mi ESE 16.1 mph - N/A   Partly Cloudy
7:53 AM 69.1 °F 46.0 °F 44% 29.80 in 10.0 mi SSE 12.7 mph - N/A   Clear
8:53 AM 69.1 °F 46.9 °F 45% 29.81 in 10.0 mi SE 17.3 mph - N/A   Clear
9:53 AM 75.0 °F 48.0 °F 38% 29.81 in 10.0 mi SSE 18.4 mph 29.9 mph N/A   Clear
10:53 AM 77.0 °F 42.1 °F 29% 29.81 in 10.0 mi SSW 15.0 mph 32.2 mph N/A   Clear
11:53 AM 78.1 °F 42.1 °F 28% 29.79 in 10.0 mi WSW 21.9 mph 31.1 mph N/A   Mostly Cloudy
12:22 PM 75.0 °F 46.0 °F 36% 29.99 in 10.0 mi NW 19.6 mph 29.9 mph N/A   Partly Cloudy
12:40 PM 71.1 °F 51.1 °F 49% 30.00 in 5.0 mi NNW 10.4 mph 21.9 mph N/A Rain , Thunderstorm Light Thunderstorms and Rain
12:53 PM 75.0 °F 51.1 °F 43% 29.79 in 10.0 mi NW 13.8 mph - N/A   Mostly Cloudy
1:53 PM 75.0 °F 46.0 °F 36% 29.78 in 10.0 mi WNW 19.6 mph 27.6 mph N/A   Partly Cloudy
2:53 PM 79.0 °F 44.1 °F 29% 29.76 in 10.0 mi NW 13.8 mph 21.9 mph 0.00 in   Mostly Cloudy
3:53 PM 82.0 °F 42.1 °F 24% 29.74 in 10.0 mi WNW 11.5 mph - N/A   Partly Cloudy
4:53 PM 82.9 °F 39.0 °F 21% 29.73 in 10.0 mi WNW 12.7 mph 25.3 mph N/A   Clear
5:53 PM 81.0 °F 37.0 °F 21% 29.74 in 10.0 mi WNW 16.1 mph - N/A   Clear
6:53 PM 77.0 °F 37.9 °F 24% 29.76 in 10.0 mi WNW 8.1 mph - N/A   Clear
7:53 PM 72.0 °F 36.0 °F 27% 29.78 in 10.0 mi NNW 4.6 mph - N/A   Clear
8:53 PM 66.0 °F 34.0 °F 30% 29.81 in 10.0 mi NE 4.6 mph - N/A   Partly Cloudy
9:53 PM 64.0 °F 33.1 °F 31% 29.80 in 10.0 mi ENE 4.6 mph - N/A   Clear
10:53 PM 62.1 °F 34.0 °F 35% 29.81 in 10.0 mi East 9.2 mph - N/A   Clear
11:53 PM 63.0 °F 35.1 °F 35% 29.81 in 10.0 mi West 4.6 mph - N/A   Clear